ECHO 2 DEB (METAL OBJ), 742

Orbit data source: Space-Track

ECHO 2 DEB (METAL OBJ), 742 is space debris in LEO originally from a launch on Sat, 25 Jan 1964 UTC launched from the Air Force Western Test Range (AFWTR). Debris objects in space refer to the collection of defunct objects orbiting the Earth. Examples of debris include non-operational satellites, rocket bodies, and fragments generated from explosions, collisions, or faulty payload assembly.

Loading next visibility...
Identifier
742, 1964-004C
Orbit
LEO
Country
Flag of USUS
Related business
Manufacturer
Grummann
Mission
Spacecraft
Bus & Motor
ECHO CANISTER, Unknown motor
Mass
35 kg wet, 35 kg dry
Launch date (UTC)
1964-01-25 (62 years ago)
Launch vehicle
Unknown
Launch site
Air Force Western Test Range (AFWTR)
Object type
Payload
Rocket body
Debris
Shape & HBR
Unknown shape, 0.9 m
Radar Cross Section
Medium (>0.1 m² and <1 m²)

Expand to show TLE details & history
Last TLE update: 8 hours ago

TLE from 8 hours ago
0 ECHO 2 DEB (METAL OBJ)
1 00742U 64004C   26125.88784009  .00000051  00000-0  85916-4 0  9996
2 00742  81.4648  89.3824 0170097 225.6797 133.0279 13.26283245 11757
Epoch: 2026-05-05T21:18Z
TLE epoch observation values (Epoch: 2026-05-05T21:18:29.383Z)
Latitude
-0.00001°
Longitude
-93.99626°
Altitude
1,252.268 km
Speed
7.186 km/s
True Right ascension
05h 57m 31s
True Declination
0° 00' 00"
Sunlit
Object was in daylight at epoch
Visualization orbit readout
Latitude
Unknown
Longitude
Unknown
Altitude
Unknown
Speed
Unknown
Apparent Right ascension
Unknown
Apparent Declination
Unknown
Sunlit
N/A
Visualization observer readout
Local Sidereal Time
13:24:52
Azimuth
Unknown
Elevation
Unknown
Doppler factor
Unknown
Orbital elements
Apogee altitude
1,286.28 km
Perigee altitude
1,029.902 km
Semi-major axis
7,536.228 km
Eccentricity
0.01701
Inclination
81.4648°
RAAN
89.3824°
Arg. of periapsis
225.6797°
True anomaly
134.43225°
Mean anomaly
133.0279°
Eccentric anomaly
133.73211°
Mean motion
3.31751 °/min
Orbital period
108.52 mins
BSTAR
0.000085916
Loading maneuver chart data...
Computing Atmospheric mass density...
Loading historical data...
Loading historical data...
Loading historical data...
Loading historical data...
Loading historical data...
Loading historical data...
Loading historical data...

Documentation

Showing up to 5 results
|